Location: Shepherdstown, WV
(39.4326°N, 77.8042°W)
Time: 04:32:15
(UTC-04:00)

SR - Pass Details

Date: 03 August 2021
Orbit: 581 x 874 km, 66.7° (Epoch: 24 September)

Event Time Altitude Azimuth Distance (km) Brightness Sun altitude
Rises 16:49:19 0° 315° (NW) 3,012 ? 39.2°
Reaches altitude 10° 16:52:19 10° 296° (WNW) 2,039 ? 38.7°
Maximum altitude 16:55:21 18° 254° (WSW) 1,545 ? 38.1°
Drops below altitude 10° 16:58:16 10° 212° (SSW) 1,943 ? 37.5°
Sets 17:01:02 0° 193° (SSW) 2,810 ? 37.0°
